Location: Unspecified
(43.8044°N, 11.0278°E)
Time: 09:33:25
(UTC+02:00)

CZ-3 Stage 3 - Visible Passes

Search period start: 17 September 2014 00:00
Search period end: 27 September 2014 00:00
Orbit: 410 x 34836 km, 30.7° (Epoch: 16 September)

Date Brightness Start Highest point End Pass type
(mag) Time Alt. Az. Time Alt. Az. Time Alt. Az.
17 Sep 7.2 01:32:47 10° S 08:28:09 49° S 08:40:35 10° ESE visible
18 Sep 8.5 00:21:49 10° SE 04:20:14 33° SE 05:01:11 10° E visible
20 Sep 7.1 01:24:06 10° S 08:26:01 50° S 08:38:03 10° ESE visible
21 Sep 8.5 00:05:47 10° SE 04:18:51 34° SE 04:59:12 10° E visible
23 Sep 7.0 01:15:43 10° S 08:23:40 51° S 08:35:21 10° ESE visible
23 Sep 8.4 23:49:58 10° SE 04:17:18 36° SE 04:56:59 10° E visible
26 Sep 6.9 01:07:38 10° S 08:21:08 52° S 08:32:29 10° ESE visible
26 Sep 10.4 23:34:22 10° SE 00:00:00 13° SE 00:00:00 13° SE visible
